Simultaneous Nadir Overpasses (SNOs) Predictions

Prediction of SNOs between LANDSAT-8 and METOP-B Satellite Orbit:

Table of predicted SNOs for the next 14.0 days since TLE Epoch: 5/25/2024
Index Date (LANDSAT-8) Time (LANDSAT-8) Lat,Lon (LANDSAT-8) SZA (LANDSAT-8 ) Date (METOP-B) Time (METOP-B) Lat,Lon (METOP-B) SZA (METOP-B ) Distance(km) Time Diff (sec)
1 05/26/2024 22:26:29 81.32,-114.25 62.43 05/26/2024 22:25:38 81.32,-114.40 62.39 2.50 51
2 05/26/2024 23:15:55 -81.34, 53.70 117.54 05/26/2024 23:16:17 -81.33, 53.63 117.53 1.32 22
3 05/29/2024 18:00:42 81.33, -47.63 62.01 05/29/2024 17:59:50 81.33, -47.58 61.99 0.69 52
4 05/29/2024 18:50:09 -81.33, 119.97 118.01 05/29/2024 18:50:30 -81.34, 120.08 117.98 2.12 21
5 06/01/2024 13:34:56 81.32, 18.69 61.59 06/01/2024 13:34:04 81.33, 18.71 61.57 0.45 52
6 06/01/2024 14:24:22 -81.34,-173.31 118.37 06/01/2024 14:24:43 -81.34,-173.19 118.35 2.03 21
7 06/04/2024 09:09:09 81.32, 85.08 61.23 06/04/2024 09:08:18 81.32, 84.89 61.19 3.30 51
8 06/04/2024 09:58:35 -81.34,-106.90 118.72 06/04/2024 09:58:57 -81.34,-106.98 118.73 1.42 22
9 06/07/2024 04:43:20 81.32, 151.55 60.93 06/07/2024 04:42:29 81.33, 151.72 60.93 2.98 51



Historial Predications of SNOs between LANDSAT-8 and METOP-B
